Location: Sternwarte Stuttgart
(48.7670°N, 9.1830°E)
Time: 00:37:06
(UTC+01:00)

Daily predictions for brighter satellites

Satellite Brightness Start Highest point End
(mag) Time Altitude Azimuth Time Altitude Azimuth Time Altitude Azimuth
ATLAS 2AS CENTAUR R/B 4.2 02:42:11 37° ENE 02:42:11 37° ENE 02:46:52 10° NE
CENTAUR R/B 3.7 03:13:56 50° NE 03:13:56 50° NE 03:21:59 10° ESE
Cosmos 1943 Rocket 4.4 03:19:04 19° NNE 03:19:04 19° NNE 03:20:37 10° NNE
Cosmos 2218 Rocket 4.5 03:58:33 56° ENE 03:58:33 56° ENE 04:03:51 10° NNE
Cosmos 2227 Rocket 3.1 04:00:42 46° ENE 04:00:42 46° ENE 04:05:44 10° SE
Lacrosse 5 rocket 4.1 04:05:23 15° ENE 04:05:23 15° ENE 04:06:20 10° ENE
BREEZE-M DEB (TANK) 4.2 04:10:01 69° E 04:10:01 69° E 04:20:53 10° E
Okean O Rocket 3.3 04:08:08 10° NNE 04:11:30 31° ENE 04:11:30 31° ENE
ADEOS II 3.5 04:09:06 10° NNE 04:11:39 29° N 04:11:39 29° N
Cosmos 2297 Rocket 2.9 04:13:55 45° NNE 04:15:02 52° NE 04:20:33 10° SE
CZ-4B R/B 4.5 04:16:00 10° NNE 04:21:00 37° E 04:24:49 16° SSE
Cosmos 1727 Rocket 4.0 04:15:45 10° N 04:22:09 82° E 04:28:30 10° S
Cosmos 2228 Rocket 4.4 04:23:58 39° NE 04:23:58 39° NE 04:27:12 10° NNE
ATLAS 2AS CENTAUR R/B 3.4 04:29:37 47° NW 04:30:18 48° NW 04:38:08 10° NE
MOS 1-B 4.2 04:27:17 10° NNE 04:33:07 87° ESE 04:33:08 87° ESE
NOSS 2-2 (E) 4.5 04:35:33 46° E 04:35:33 46° E 04:39:17 10° NE
Cosmos 1959 Rocket 4.4 04:35:43 75° WNW 04:35:43 75° WNW 04:41:52 10° N
Cosmos 2082 3.9 04:37:13 33° NNW 04:39:51 69° ENE 04:45:33 10° SE
SL-8 Rocket 4.3 04:41:59 51° NW 04:41:59 51° NW 04:47:01 10° N
Cosmos 2285 Rocket 4.1 04:37:17 10° NNW 04:43:46 78° ENE 04:50:13 10° SSE
Cosmos 1340 4.4 04:45:37 29° NNE 04:45:37 29° NNE 04:47:39 10° NNE
RESURS DK-1 3.3 04:45:12 46° NE 04:45:12 46° NE 04:48:18 10° NE
SL-08 R/B 4.3 04:43:55 71° SW 04:44:32 78° W 04:50:43 10° N
Cosmos 1898 Rocket 4.1 04:46:25 31° S 04:48:45 55° ESE 04:53:58 10° NNE
Meteor 2-2 Rocket 4.4 04:50:23 55° NW 04:50:23 55° NW 04:55:13 10° N
ERBS 4.4 04:53:09 24° NE 04:53:09 24° NE 04:54:46 10° NE
Cosmos 1515 Rocket 4.3 04:54:38 42° N 04:54:38 42° N 04:57:34 10° N
Cosmos 2369 Rocket 4.1 04:55:09 16° NNW 04:55:09 16° NNW 04:57:48 10° N
NOSS 3-4 (A) 3.4 04:55:15 60° W 04:56:16 71° NW 05:02:51 10° NE
NOSS 3-4 (C) 3.4 04:55:20 60° W 04:56:22 72° NW 05:02:58 10° NE
Cosmos 1455 4.5 05:00:34 16° N 05:00:34 16° N 05:01:26 10° N
NOSS 2-2 (C) 3.5 04:58:20 74° E 04:58:20 74° E 05:02:47 10° NE
Cosmos 1937 Rocket 4.3 04:54:35 15° S 04:58:42 49° ESE 05:03:45 10° NNE
Cosmos 1943 Rocket 3.9 05:00:35 18° NNW 05:00:35 18° NNW 05:03:36 10° N
Cosmos 1241 Rocket 4.4 05:01:46 55° WSW 05:03:01 70° NW 05:09:15 10° NE
CENTAUR R/B 3.1 05:01:10 33° WNW 05:05:00 61° WSW 05:13:17 10° SSE
Cosmos 2369 4.2 05:05:59 13° S 05:11:02 59° ESE 05:16:41 10° NE
USA 116 4.0 05:08:50 10° SSE 05:13:11 90° SSE 05:18:07 10° NNW
Cosmos 1980 Rocket 4.4 05:12:10 10° SSE 05:16:43 25° ESE 05:21:15 10° NE
Cosmos 2123 Rocket 4.4 05:11:32 10° N 05:17:42 64° ENE 05:23:53 10° SSE
Cosmos 990 Rocket 4.2 05:14:27 12° S 05:19:13 70° ESE 05:24:29 10° NNE
Meteor PRIRODA 4.2 05:16:00 10° N 05:18:46 45° NNW 05:18:46 45° NNW
SJ-6F 4.2 05:18:10 10° N 05:22:15 77° WNW 05:23:19 48° SSW
Cosmos 1934 Rocket 4.5 05:17:11 10° S 05:23:26 64° E 05:29:44 10° NNE
Cosmos 2298 Rocket 4.2 05:20:01 10° SSW 05:25:17 71° ESE 05:30:35 10° NNE
CZ-3 R/B 4.0 05:20:13 18° SW 05:27:42 25° SSW 05:33:53 10° SSE
EO 1 Del DPAF 4.4 05:25:47 10° SE 05:29:25 44° ENE 05:33:06 10° N
Meteor 1-31 Rocket 2.9 05:26:35 10° N 05:30:00 50° NW 05:30:00 50° NW
IDEFIX/ARIANE 42P 3.1 05:26:29 10° NNE 05:31:43 61° E 05:36:52 10° S
Genesis I 4.4 05:29:09 14° S 05:32:14 41° ESE 05:36:00 10° NE
COSMOS 2455 3.6 05:29:20 10° NNW 05:35:14 51° NE 05:41:06 10° ESE
COSMO-SKYMED 1 2.4 05:31:01 10° SSE 05:35:22 84° WSW 05:39:45 10° NNW
Cosmos 1821 Rocket 3.9 05:30:18 10° SSW 05:36:26 81° W 05:42:42 10° N
CZ-2C R/B 3.7 05:32:01 10° S 05:36:41 61° WSW 05:41:19 10° NNW
NOAA 6 4.3 05:32:17 10° NNE 05:37:29 70° ESE 05:42:36 10° S
Cosmos 1656 3.6 05:32:16 10° SSW 05:37:42 85° ESE 05:43:12 10° NNE
Cosmos 1151 Rocket 3.8 05:39:27 32° NW 05:39:27 32° NW 05:42:52 10° N
Geosat 3.9 05:34:21 10° SSE 05:39:22 76° WSW 05:44:26 10° NNW
Cosmos 2098 Rocket 4.3 05:39:09 31° WSW 05:40:53 38° WNW 05:46:55 10° N
Lacrosse 5 rocket 1.1 05:41:04 37° NW 05:42:31 85° NE 05:46:33 10° SE
SJ 16-02 3.2 05:38:57 10° SSE 05:42:53 32° ESE 05:46:50 10° NE
Cosmos 2150 Rocket 3.9 05:38:46 10° SSW 05:43:57 89° ESE 05:49:08 10° NNE
Cosmos 2227 Rocket 2.8 05:42:37 28° WNW 05:44:13 33° WSW 05:49:13 10° SSW
Cosmos 1535 Rocket 4.4 05:40:43 10° SSW 05:46:52 79° W 05:53:02 10° N
Okean O Rocket 2.3 05:44:34 10° N 05:48:29 31° WNW 05:48:58 30° W
Cosmos 1697 Rocket 2.9 05:43:23 10° SSW 05:48:57 71° ESE 05:54:34 10° NNE
Landsat 4 3.5 05:47:12 10° SSE 05:50:56 81° WSW 05:54:40 10° NNW
ADEOS II 3.9 05:50:32 10° NNW 05:52:35 14° NW 05:52:35 14° NW
Cosmos 1869 Rocket 3.7 05:49:55 10° NNW 05:54:11 50° W 05:58:28 10° S
Meteor 2-10 Rocket 3.3 05:49:50 10° SSW 05:54:55 78° WNW 05:59:58 10° N
Radarsat Rocket 4.2 05:50:08 10° NNE 05:55:59 70° ESE 06:01:54 10° S
DMSP B5D1-3 4.4 05:52:45 10° SSE 05:57:51 83° WSW 06:02:59 10° NNW
Cosmos 2297 Rocket 2.9 05:55:49 19° WNW 05:58:50 30° WSW 06:03:39 10° SSW
Cosmos 2228 Rocket 4.5 06:01:29 20° WNW 06:01:29 20° WNW 06:04:43 10° NNW
CZ-4B R/B 3.7 05:56:38 10° N 06:01:34 38° WNW 06:06:33 10° SW
Cosmos 405 3.5 05:58:55 10° N 06:02:27 61° ENE 06:05:59 10° SSE
IRS-1C Rocket 4.4 05:57:50 10° N 06:02:50 44° WNW 06:07:48 10° SW
Cosmos 1707 Rocket 3.5 06:00:30 10° SSW 06:04:56 72° W 06:09:27 10° N
Cosmos 1869 4.1 06:04:07 22° WSW 06:05:41 29° WNW 06:09:12 10° N
PAYLOAD A 3.8 06:08:39 10° N 06:13:19 61° WNW 06:18:02 10° SSW
Cosmos 2242 Rocket 4.2 06:09:40 10° S 06:14:10 62° E 06:18:42 10° NNE
CZ-4 R/B 4.0 06:17:18 10° NE 06:20:26 23° E 06:23:33 10° SSE
Cosmos 1605 Rocket 3.9 06:15:20 10° SSW 06:21:28 73° W 06:27:36 10° N
RESURS DK-1 3.9 06:21:08 16° WNW 06:22:39 19° NW 06:25:40 10° N
EXPRESS MD2 4.2 06:19:38 17° W 06:22:50 69° SSW 06:31:08 10° ESE
ATLAS 2AS CENTAUR R/B 4.2 06:17:03 12° WNW 06:23:22 28° N 06:30:08 10° NE
SKYMED 2 4.4 06:19:49 10° SSW 06:23:34 28° W 06:27:22 10° NW
Cosmos 1933 3.3 06:19:59 10° SSW 06:24:02 65° W 06:28:07 10° N
Cosmos 1048 Rocket 3.9 06:19:12 10° NNW 06:24:22 69° WSW 06:29:27 10° SSE
Cosmos 1484 Rocket 3.6 06:21:41 10° NNE 06:25:35 58° E 06:29:31 10° S
ERBS 4.1 06:26:21 13° NW 06:28:36 21° N 06:31:19 10° NE
Cosmos 1862 4.3 06:25:20 10° NNW 06:28:39 25° W 06:31:57 10° SW
Cosmos 2278 4.1 06:24:04 10° SW 06:29:31 44° NW 06:35:00 10° NNE
Feng Yun 1-1 Rocket 4.4 06:24:38 10° N 06:29:57 52° WNW 06:35:20 10° SW
Okean-O 3.0 06:31:16 10° N 06:35:27 41° WNW 06:39:36 10° SW
Cosmos 2263 Rocket 2.8 06:30:09 10° NNW 06:35:46 61° ENE 06:41:23 10° SE
Cosmos 1633 2.9 06:33:56 10° N 06:37:33 69° E 06:41:11 10° SSE
Cosmos 1606 4.2 06:34:58 10° SSE 06:38:35 42° E 06:42:13 10° NNE
Cosmos 2227 4.2 06:34:06 10° NNW 06:39:42 64° WSW 06:45:14 10° SSE
Cosmos 1937 Rocket 4.4 06:36:23 10° WSW 06:40:54 29° NW 06:45:30 10° N
CZ-2C R/B 2.7 06:38:00 10° N 06:42:46 47° WNW 06:47:39 10° SW
Cosmos 1125 Rocket 3.5 06:37:43 10° SSW 06:42:54 84° WNW 06:48:09 10° NNE
USA 229 DEB 4.4 06:37:54 10° NW 06:44:54 58° NE 06:52:06 10° ESE
USA 229 4.4 06:38:00 10° NW 06:45:00 57° NE 06:52:12 10° ESE
Cosmos 2322 Rocket 3.8 06:40:37 10° S 06:45:53 42° ESE 06:51:13 10° NE
Cosmos 405 Rocket 2.7 06:41:54 10° SSW 06:45:54 77° W 06:49:51 10° N
SJ-7 4.5 06:42:10 10° NNE 06:46:20 86° ESE 06:50:24 10° SSW
BREEZE M DEB (TANK) 1.2 06:48:46 10° W 06:50:52 75° N 06:53:45 10° E
CENTAUR R/B 4.5 06:50:10 10° WNW 06:54:30 16° WSW 06:58:57 10° SW
Meteor 1-26 Rocket 4.3 06:50:40 10° SSW 06:56:33 72° WNW 07:02:26 10° N
